RH
1 1 1 1 1 1 1 1 1 1 1 1 1 1 1 1 1 1 1 1 1 2 2 2 2 2 2 2 2 2 2 2 2 2 2 2 2 2 2 2 2 2 2 2 2 2 2 2 2 2 2 2 2 2 2 2 2 2 2 2 2 2 2 2 2 2 2 2 2 2 2 2 2 2 2 2 2 2 1 1 1 1 1 1 1 1 1 1 1 1 1 1 1 1 1 1 1 1 1 1 2 2 2
1 1 1 1 1 1 1 1 1 1 1 1 1 1 1 1 1 1 1 1 2 2 2 2 2 2 2 2 2 2 3 3 3 3 3 3 3 3 3 3 3 3 3 3 2 2 2 2 2 2 2 2 2 2 2 2 2 2 2 2 2 2 2 2 2 2 2 2 2 2 2 2 2 2 2 2 2 2 2 2 2 2 2 2 1 1 1 1 1 2 2 2 2 2 2 2 2 2 2 2 2 2 2
1 1 1 1 1 1 1 1 1 1 1 2 2 2 2 2 2 2 2 2 2 2 2 2 2 2 2 2 3 3 3 3 3 3 3 3 3 3 3 3 3 3 3 3 3 3 3 3 3 3 3 3 3 3 3 3 3 3 3 3 3 3 3 3 3 3 3 2 2 2 2 2 2 2 2 2 2 2 2 2 2 2 2 2 2 2 2 2 2 2 2 2 2 2 2 2 2 2 2 2 2 2 2
2 2 1 1 1 1 1 1 1 2 2 2 2 2 2 2 2 2 2 2 2 2 2 2 2 2 2 2 3 3 3 3 3 3 3 3 3 3 3 3 3 3 3 3 3 3 3 3 3 3 3 3 3 3 3 3 3 3 3 3 3 3 3 3 3 3 3 3 3 3 3 3 3 3 3 3 3 3 2 2 2 2 2 2 2 2 2 2 2 2 2 2 2 2 2 2 2 2 2 2 2 2 3
2 2 2 2 2 2 2 2 2 2 2 2 2 2 2 2 2 2 2 2 2 2 2 2 2 2 2 2 3 3 3 3 3 3 3 3 3 4 4 4 4 4 4 4 4 4 4 4 4 4 4 4 4 4 4 4 4 4 4 4 4 4 4 4 4 4 4 4 4 4 3 3 3 3 3 3 3 3 3 3 3 3 3 3 3 3 3 3 3 3 3 3 3 3 3 3 3 3 3 3 3 3 3
2 2 2 2 2 2 2 2 2 2 2 2 2 2 2 2 2 2 2 2 2 2 2 2 2 2 2 2 2 3 3 3 3 3 3 4 4 4 4 4 4 4 4 4 4 4 4 4 4 4 4 4 4 4 5 5 5 5 5 5 5 5 5 5 5 4 4 4 4 4 4 4 4 4 4 4 4 4 4 4 4 4 4 4 4 4 3 3 3 3 3 3 3 4 4 4 4 4 4 4 4 4 4
3 2 2 2 2 2 2 2 2 2 2 2 2 2 2 2 2 2 2 3 3 3 3 2 2 2 2 2 2 3 3 3 3 3 3 3 4 4 4 4 4 4 4 4 4 4 4 4 5 5 5 5 5 5 5 5 5 5 5 5 5 5 5 5 5 5 5 5 5 5 5 5 5 5 5 5 5 5 5 5 5 5 5 5 4 4 4 4 4 4 4 4 4 5 5 5 5 5 5 5 5 5 5
3 3 3 3 2 2 2 2 2 2 2 2 2 2 2 2 2 3 3 3 3 3 3 3 3 3 3 3 3 3 3 3 3 3 3 3 3 4 4 4 4 4 4 4 4 5 5 5 5 5 5 5 5 5 5 5 6 6 6 6 6 6 6 6 6 6 6 6 6 6 6 6 6 6 6 6 6 6 6 6 6 6 6 6 6 6 6 6 6 6 6 6 6 6 6 6 6 6 6 6 6 6 6
3 3 3 3 3 3 3 2 2 2 2 2 2 2 2 2 3 3 3 3 3 3 3 3 3 3 3 3 3 3 3 3 3 3 3 3 3 3 4 4 4 4 4 4 5 5 5 5 5 5 5 5 5 5 6 6 6 6 6 6 6 6 6 6 7 7 7 7 7 7 7 7 7 7 7 7 7 7 7 7 7 7 7 7 7 7 7 7 7 7 7 7 7 7 7 7 7 7 7 7 7 7 7
3 3 3 3 3 3 3 3 3 3 3 3 2 2 2 3 3 3 3 3 3 3 3 3 3 3 3 3 3 3 3 3 3 3 3 3 3 3 3 4 4 4 4 4 5 5 5 5 5 5 6 6 6 6 6 6 6 6 6 6 6 6 7 7 7 7 7 7 7 7 7 7 7 7 7 7 7 7 7 7 7 7 7 7 7 7 7 7 7 7 7 7 7 8 8 8 8 8 8 8 8 8 8
3 3 3 3 3 3 3 3 3 3 3 3 3 3 3 3 3 3 3 3 3 3 3 3 3 3 3 3 4 4 4 4 4 3 3 3 3 3 3 3 4 4 4 4 4 4 5 5 5 5 6 6 6 6 6 6 6 6 6 6 6 7 7 7 7 7 7 7 7 7 7 7 7 7 7 7 7 8 8 8 8 8 8 8 8 8 8 8 8 8 8 8 8 8 8 8 8 8 8 8 8 8 8
3 3 3 3 3 3 3 3 3 3 3 3 3 3 3 3 3 3 3 3 3 3 3 3 3 4 4 4 4 4 4 4 4 4 4 4 4 4 4 4 4 4 4 4 4 4 4 4 5 5 5 5 6 6 6 6 6 6 6 7 7 7 7 7 7 7 7 7 7 7 7 7 7 7 7 7 7 7 7 8 8 8 8 8 8 8 8 8 8 8 8 8 8 8 8 8 8 8 7 7 7 7 7
4 3 3 3 3 3 3 3 3 3 3 4 4 4 4 3 3 3 3 3 3 3 3 3 3 4 4 4 4 4 4 4 4 4 4 4 4 4 4 4 4 4 4 4 4 4 4 4 4 5 5 5 5 6 6 6 6 6 7 7 7 7 7 7 7 7 7 7 7 7 7 7 7 7 7 7 7 7 7 7 7 7 7 7 7 7 7 7 7 7 7 7 7 7 7 7 7 7 7 7 7 7 7
5 5 4 4 3 3 3 3 3 3 3 3 4 4 4 4 4 4 3 3 3 3 3 3 3 4 4 4 4 4 4 4 4 4 4 4 4 4 4 4 4 4 4 4 4 4 4 4 5 5 5 5 5 6 6 6 6 6 7 7 7 7 7 7 7 7 7 7 7 7 7 7 7 7 7 7 7 7 7 7 7 7 7 7 7 7 7 7 7 7 7 7 7 7 7 7 7 7 7 7 7 7 7
7 6 6 5 5 4 4 4 3 3 3 3 3 3 4 4 4 4 4 4 4 4 4 4 4 4 4 4 4 4 4 4 4 4 4 4 4 4 5 5 5 5 5 5 5 5 5 5 5 5 5 5 5 6 6 6 6 6 7 7 7 7 7 7 7 7 7 7 7 7 7 7 7 7 7 7 7 7 7 7 7 7 7 7 7 7 7 7 7 7 7 7 7 7 7 7 7 7 7 7 7 7 7
8 8 7 7 6 6 5 5 5 4 4 4 4 4 4 4 4 4 4 4 4 4 4 4 4 4 4 4 4 4 4 4 4 4 4 4 5 5 5 5 5 5 5 5 5 5 5 5 5 5 5 6 6 6 6 6 6 6 7 7 7 7 7 7 7 7 7 7 7 7 7 7 7 7 7 7 7 7 7 7 7 7 7 7 7 7 7 7 7 7 7 7 7 7 7 7 7 7 7 7 7 7 7
10 10 9 9 8 8 7 7 6 6 6 5 5 4 4 4 4 4 4 4 4 5 5 5 4 4 4 4 4 4 4 4 4 4 4 4 4 5 5 5 5 5 5 5 5 5 5 5 5 6 6 6 6 6 6 6 6 7 7 7 7 7 7 7 7 7 7 7 7 7 7 7 7 7 7 7 7 7 7 7 7 7 7 7 7 7 7 7 7 7 7 7 7 7 7 7 7 7 7 7 7 7 7
11 11 11 11 10 10 10 9 9 8 8 7 7 6 6 5 5 5 5 5 5 5 5 5 5 5 5 5 5 4 4 4 4 4 4 4 4 4 5 5 5 5 5 5 5 5 5 5 5 6 6 6 6 6 6 6 6 7 7 7 7 7 7 7 7 7 7 8 8 8 8 8 8 8 7 7 7 7 7 7 7 7 7 7 7 7 7 7 7 7 7 7 7 7 7 7 7 7 7 7 7 7 7
12 12 12 12 12 12 11 11 11 10 10 10 9 9 8 8 7 7 6 6 6 6 6 5 5 5 5 5 5 5 5 5 5 5 5 5 4 4 4 5 5 5 5 5 5 5 5 5 5 5 6 6 6 6 6 6 6 6 6 7 7 7 7 7 7 7 7 8 8 8 8 8 8 8 8 8 8 8 8 8 8 8 8 7 7 7 7 7 7 7 7 7 7 7 7 7 7 7 7 7 7 7 7
13 13 13 13 13 13 13 13 12 12 12 12 11 11 11 10 10 9 9 9 8 8 7 7 7 6 6 6 6 6 6 6 6 6 5 5 5 5 5 5 5 5 5 5 5 5 5 5 5 5 5 6 6 6 6 6 6 6 6 6 7 7 7 7 7 7 7 7 7 8 8 8 8 8 8 8 8 8 8 8 8 8 8 8 8 8 8 8 7 7 7 7 7 7 7 8 8 8 8 8 8 8 8
13 13 13 14 14 14 14 14 14 14 13 13 13 13 13 12 12 12 11 11 11 10 10 10 9 9 9 8 8 8 7 7 7 7 6 6 6 6 6 6 6 5 5 5 5 5 5 5 5 5 5 5 5 6 6 6 6 6 6 6 6 6 7 7 7 7 7 7 7 7 7 8 8 8 8 8 8 8 8 8 8 8 8 8 8 8 8 8 8 8 8 8 8 8 8 8 8 8 8 8 8 8 8
13 13 13 14 14 14 14 14 14 14 14 14 14 14 14 14 14 14 13 13 13 13 13 12 12 12 11 11 11 10 10 10 9 9 8 8 8 8 7 7 7 7 7 6 6 6 6 6 6 6 5 5 5 5 5 6 6 6 6 6 6 6 6 6 7 7 7 7 7 7 7 7 7 8 8 8 8 8 8 8 8 8 8 8 8 8 8 8 8 8 8 8 8 8 8 8 8 8 8 8 8 8 8
12 13 13 13 14 14 14 14 14 14 14 15 15 15 15 15 15 15 15 15 15 15 15 14 14 14 14 14 13 13 13 12 12 12 11 11 11 10 10 10 9 9 9 8 8 8 8 7 7 7 7 7 6 6 6 6 6 6 6 6 6 6 6 6 6 6 6 6 7 7 7 7 7 7 7 8 8 8 8 8 8 8 8 8 8 8 8 8 8 8 9 9 9 9 9 9 8 8 8 8 8 8 8
12 12 13 13 13 14 14 14 14 14 14 15 15 15 15 15 16 16 16 16 16 16 16 16 16 16 15 15 15 15 15 15 14 14 14 14 13 13 13 13 12 12 12 11 11 11 10 10 10 9 9 9 8 8 8 8 8 7 7 7 7 7 7 6 6 6 6 6 6 6 6 7 7 7 7 7 7 7 7 7 8 8 8 8 8 8 8 8 8 9 9 9 9 9 9 9 9 9 9 9 9 9 9
12 12 13 13 13 13 14 14 14 14 14 15 15 15 15 16 16 16 16 16 17 17 17 17 17 17 17 17 16 16 16 16 16 16 16 15 15 15 15 15 15 15 15 14 14 14 14 13 13 13 12 12 11 11 11 10 10 10 9 9 9 9 9 8 8 8 8 8 7 7 7 7 7 7 7 7 7 7 7 7 7 7 7 7 7 7 8 8 8 8 8 8 8 9 9 9 9 9 9 9 9 9 9
11 12 12 13 13 13 13 14 14 14 14 15 15 15 16 16 16 16 17 17 17 17 17 17 17 17 17 17 17 17 17 17 17 17 17 16 16 16 16 16 16 16 16 16 16 16 16 16 16 16 15 15 15 14 14 14 13 13 12 12 12 11 11 11 11 10 10 10 10 10 10 9 9 9 9 9 8 8 8 8 8 8 8 8 7 7 7 7 7 7 8 8 8 8 8 8 8 9 9 9 9 9 9
10 11 11 12 12 13 13 13 14 14 14 15 15 15 15 15 16 16 16 16 17 17 17 17 17 17 17 17 18 18 18 18 18 18 18 18 18 18 18 17 17 18 18 18 18 18 18 18 18 18 18 18 17 17 17 17 16 16 16 16 15 15 15 14 14 14 13 13 13 13 12 12 12 12 12 12 11 11 11 11 10 10 10 10 10 9 9 9 9 9 9 8 8 8 8 8 8 8 8 8 9 9 9
9 10 10 10 11 11 12 12 13 13 14 14 14 14 15 15 15 15 15 15 16 16 16 16 16 16 17 17 17 17 17 18 18 18 18 18 18 19 19 19 19 19 19 19 19 19 20 20 20 20 20 20 20 20 20 20 20 19 19 19 19 19 18 18 18 18 17 17 17 16 16 16 16 15 15 15 15 15 14 14 14 14 13 13 13 13 12 12 12 12 11 11 11 11 10 10 10 10 10 9 9 9 9
8 8 8 9 9 10 10 10 11 11 12 12 12 13 13 13 14 14 14 14 14 15 15 15 15 15 16 16 16 16 17 17 17 18 18 18 19 19 20 20 20 20 20 21 21 21 21 22 22 22 23 23 23 23 24 24 24 24 24 24 23 23 23 23 23 23 22 22 22 21 21 21 21 20 20 20 19 19 19 19 18 18 18 17 17 17 17 16 16 16 16 15 15 15 14 14 14 13 13 12 12 11 11
7 7 7 7 7 8 8 9 9 9 9 10 10 11 11 11 12 12 12 13 13 13 14 14 14 14 15 15 15 16 16 16 17 17 18 18 19 19 20 21 21 21 22 22 22 22 23 23 23 23 24 24 25 25 26 26 26 26 27 27 27 27 28 28 28 28 28 27 27 27 27 27 27 27 27 26 26 26 26 26 25 25 24 24 24 23 23 23 23 22 22 22 21 21 21 20 20 19 19 18 18 17 16
6 6 6 6 6 6 7 7 7 7 8 8 9 9 9 10 10 11 11 12 12 12 13 13 14 14 14 15 15 15 16 16 17 17 18 18 19 20 20 21 22 22 23 23 23 24 24 24 24 24 25 25 25 25 26 26 26 26 27 27 27 28 28 28 28 29 29 29 29 29 30 30 30 30 30 30 30 30 30 30 30 30 30 30 30 30 29 29 29 29 29 29 29 28 28 28 27 27 26 26 25 25 24
6 6 6 6 6 6 6 6 6 6 7 7 7 8 8 9 9 10 10 11 12 12 13 14 14 15 15 16 16 16 17 17 18 18 18 19 19 20 21 21 22 22 23 23 24 24 24 25 25 25 25 25 25 25 25 25 25 25 25 25 25 25 25 25 25 25 25 25 25 25 25 25 25 26 26 26 26 26 26 27 27 27 27 27 27 28 28 28 28 28 28 29 29 29 29 30 30 30 30 30 30 30 30
6 6 6 6 6 6 6 6 6 6 6 6 7 7 8 8 8 9 10 10 11 12 13 14 15 16 16 17 18 18 18 19 19 20 20 20 21 21 21 22 22 23 23 23 23 24 24 24 24 24 24 24 24 24 24 24 23 23 23 22 22 22 21 21 20 20 19 19 18 18 18 18 17 17 17 17 17 17 17 17 17 18 18 18 18 18 18 18 19 19 20 20 20 21 22 22 23 23 24 25 26 26 27
6 6 6 6 6 6 6 6 6 6 6 6 7 7 7 8 8 9 9 10 11 12 13 14 15 16 17 18 18 19 20 21 21 22 22 22 22 22 22 23 23 23 23 23 23 23 23 23 23 23 23 23 23 22 22 21 21 20 20 19 19 18 18 17 16 15 15 14 13 12 12 11 11 11 10 10 10 10 10 10 10 10 10 10 10 10 10 10 10 10 11 11 11 11 12 12 13 13 14 15 15 16 17
6 6 6 6 6 6 6 6 6 6 6 6 6 7 7 7 8 8 9 10 10 11 12 13 14 15 16 17 18 19 20 20 21 22 22 23 23 23 23 23 23 23 23 23 23 23 23 22 22 22 21 21 20 20 19 18 18 17 17 16 15 14 14 13 12 12 11 10 10 9 9 9 8 8 8 7 7 7 7 7 7 7 7 7 7 7 7 7 7 7 8 8 8 8 8 8 8 8 9 9 9 9 10
7 7 7 7 6 6 6 6 6 6 6 6 6 7 7 7 8 8 9 9 10 10 11 12 13 14 15 16 17 18 18 19 20 21 21 22 22 22 23 23 23 23 23 23 22 22 22 21 20 20 19 18 18 17 16 15 14 14 13 12 11 11 10 10 9 9 8 8 8 7 7 7 7 7 7 7 6 6 6 6 6 6 6 7 7 7 7 7 7 7 7 7 7 7 7 8 8 8 8 8 8 8 8
7 7 7 7 7 7 7 7 7 6 6 6 7 7 7 7 7 8 8 9 9 10 10 11 12 13 14 15 16 17 17 18 19 19 20 20 21 21 21 21 21 21 21 21 20 20 19 18 17 17 16 15 14 13 12 12 11 10 10 9 9 8 8 8 7 7 7 7 7 6 6 6 6 6 6 6 6 6 6 6 6 6 6 6 6 6 6 6 6 6 6 6 6 6 6 7 7 7 7 7 8 8 8
8 8 8 7 7 7 7 7 7 7 7 7 7 7 7 7 7 8 8 9 9 10 10 11 11 12 13 14 15 16 16 17 18 19 19 19 19 19 20 19 19 19 18 18 17 17 16 15 14 13 12 12 11 10 10 9 9 8 8 8 7 7 7 7 7 7 6 6 6 6 6 6 6 6 6 5 5 5 5 5 5 5 5 5 5 5 5 5 5 5 5 5 5 5 5 5 5 5 5 6 6 6 6
8 8 8 8 8 8 7 7 7 7 7 7 7 7 7 7 7 8 8 9 9 9 10 11 11 12 12 13 14 15 16 17 17 18 18 18 18 18 18 17 17 16 16 15 14 14 13 12 11 11 10 9 9 9 8 8 8 7 7 7 7 7 7 7 7 6 6 6 6 6 6 5 5 5 5 5 5 5 4 4 4 4 4 4 4 4 4 4 4 4 4 4 4 4 4 4 4 4 4 4 4 4 4
8 8 8 8 8 8 8 8 8 8 7 7 7 7 7 7 8 8 8 8 9 9 10 10 11 12 12 13 14 14 15 16 16 16 16 17 16 16 15 15 14 14 13 13 12 11 10 10 9 9 9 8 8 8 8 7 7 7 7 7 7 7 7 7 6 6 6 6 5 5 5 5 5 5 4 4 4 4 4 4 4 4 4 4 4 3 3 3 3 3 3 3 3 3 3 3 3 3 3 3 3 3 3
8 8 8 8 8 8 8 8 8 8 8 8 8 8 7 8 8 8 8 8 9 9 10 10 11 12 12 12 13 14 14 14 14 15 15 15 14 14 13 13 12 12 11 10 10 9 9 8 8 8 8 7 7 7 7 7 7 7 7 7 7 6 6 6 6 6 5 5 5 5 5 4 4 4 4 4 4 4 4 4 4 4 4 3 3 3 3 3 3 3 3 3 3 3 3 3 3 3 3 3 3 3 3
9 9 9 9 9 9 8 8 8 8 8 8 8 8 8 8 8 8 8 8 9 9 9 10 10 11 11 12 12 12 13 13 13 13 13 13 12 12 11 11 10 10 9 9 8 8 7 7 7 7 7 7 7 7 7 7 7 7 7 6 6 6 6 6 5 5 5 5 5 4 4 4 4 4 4 4 4 4 4 4 4 4 4 4 4 3 3 3 3 3 3 3 3 3 3 3 3 3 3 4 4 4 4
9 9 9 9 9 9 9 9 9 9 9 9 8 8 8 8 8 8 8 8 8 9 9 9 10 10 10 11 11 11 11 11 11 11 11 11 10 10 9 9 8 8 8 7 7 7 7 7 7 7 7 7 7 7 7 7 7 6 6 6 6 6 5 5 5 5 5 4 4 4 4 4 4 4 4 4 4 4 4 4 4 4 4 4 4 4 4 4 4 3 3 3 3 4 4 4 4 4 4 5 5 5 6
9 9 9 9 9 9 9 9 9 9 9 9 9 9 9 8 8 8 8 8 8 8 8 9 9 9 10 10 10 10 10 10 10 10 9 9 9 8 8 7 7 7 7 6 6 6 6 6 6 7 7 7 7 7 7 7 6 6 6 6 5 5 5 5 5 5 4 4 4 4 4 4 4 4 4 4 4 4 4 4 4 4 4 4 4 4 4 4 4 4 4 4 4 4 4 4 5 5 6 6 7 7 8
9 9 9 9 9 9 9 9 9 9 9 9 9 9 9 9 9 9 9 9 8 8 8 8 8 9 9 9 9 9 9 9 9 9 8 8 8 7 7 6 6 6 6 6 6 6 6 6 7 7 7 7 7 7 7 6 6 6 6 5 5 5 5 5 5 4 4 4 4 4 4 4 4 4 4 4 4 4 4 4 4 4 4 4 4 4 4 4 4 4 4 4 4 4 5 5 6 6 7 8 9 10 10
10 9 9 9 9 10 10 10 10 10 10 10 10 10 10 10 10 10 10 9 9 9 9 9 9 8 8 8 9 9 9 8 8 8 8 7 7 6 6 6 5 5 5 6 6 6 6 7 7 7 7 7 7 7 7 6 6 6 5 5 5 5 5 5 5 5 4 4 4 4 4 4 4 4 4 4 4 4 4 4 4 4 4 4 4 4 4 4 4 4 4 5 5 5 5 6 7 8 9 10 11 12 13
11 10 10 10 10 10 10 10 10 10 10 10 10 10 10 10 10 10 10 10 10 10 10 9 9 9 9 8 8 8 8 8 7 7 7 6 6 6 5 5 5 5 5 6 6 6 6 7 7 7 7 7 7 7 6 6 6 6 5 5 5 5 5 5 5 5 5 4 4 4 4 4 4 4 5 5 5 5 5 4 4 4 4 4 4 4 4 4 4 4 4 5 5 5 6 6 7 8 9 11 12 13 14
13 12 12 11 11 10 10 10 10 10 11 11 11 11 11 11 11 11 11 11 11 11 11 10 10 10 10 9 9 8 8 8 7 7 6 6 6 5 5 5 5 5 5 5 6 6 6 7 7 7 7 7 7 7 6 6 6 6 6 5 5 5 5 5 5 5 5 5 5 5 5 5 5 5 5 5 5 5 5 4 4 4 4 4 4 4 4 4 4 4 4 5 5 5 6 6 7 8 10 11 12 14 15
18 17 15 14 13 12 12 11 11 11 11 11 11 11 11 12 12 12 12 12 12 12 12 12 11 11 11 10 10 10 9 8 8 7 7 6 6 5 5 5 5 5 5 5 5 5 6 6 7 7 7 7 7 6 6 6 6 6 6 6 5 5 5 5 5 5 5 5 5 5 5 5 5 5 5 5 5 5 4 4 4 4 4 4 4 5 5 5 5 5 5 5 5 5 5 6 7 7 9 10 11 13 14
23 22 20 19 18 16 15 14 13 13 12 12 12 12 12 12 12 12 12 13 13 13 13 13 13 12 12 12 11 11 10 10 9 9 8 7 7 6 6 5 5 5 5 5 5 5 5 6 6 7 7 7 7 7 7 6 6 6 6 6 6 5 5 5 5 5 5 5 5 5 5 5 5 5 5 5 5 5 5 5 5 5 5 5 5 6 6 6 6 6 6 5 5 5 5 6 6 7 7 8 10 11 12
27 26 25 24 23 21 20 19 17 16 15 14 14 13 13 13 13 13 13 13 13 13 13 14 13 13 13 13 13 12 12 11 11 10 10 9 8 8 7 7 6 6 6 5 5 5 6 6 6 7 7 7 7 7 7 7 6 6 6 6 6 6 5 5 5 5 5 5 5 5 5 5 5 5 5 5 5 5 6 6 6 6 7 7 7 7 7 7 7 7 7 7 6 6 6 6 6 6 7 7 8 9 10
29 29 29 28 27 26 26 24 23 21 20 18 17 16 16 15 14 14 14 14 14 14 14 14 14 14 14 14 14 14 13 13 13 12 11 11 10 10 9 8 8 7 7 7 6 6 6 6 6 6 6 6 6 6 6 6 6 6 6 6 6 6 5 5 5 5 5 5 5 5 5 5 6 6 6 7 7 7 8 8 9 9 9 10 10 10 10 10 9 9 8 8 8 7 7 7 7 7 7 7 7 8 9
30 30 30 31 30 30 30 29 28 27 25 24 22 21 20 18 18 17 16 16 15 15 15 15 15 15 15 15 15 15 15 14 14 14 13 13 12 12 11 10 10 9 9 8 7 7 7 7 6 6 6 6 6 6 6 6 6 6 6 6 6 6 6 6 6 6 6 6 7 7 7 8 8 8 9 10 10 11 11 12 12 13 13 13 13 13 12 12 11 11 10 10 9 9 8 8 8 7 7 7 7 8 8
31 31 32 32 32 32 32 32 31 31 30 29 28 26 25 24 22 21 20 19 18 17 17 16 16 16 16 16 16 16 16 15 15 15 15 14 14 13 13 13 12 12 11 10 10 9 9 9 8 8 7 7 7 7 6 6 6 6 6 7 7 7 7 8 8 8 9 9 9 10 10 11 11 12 13 13 14 15 15 16 17 17 18 18 18 17 17 16 15 14 13 12 11 11 10 10 9 9 9 8 8 8 8
32 32 32 33 33 33 33 34 34 34 33 33 32 31 30 29 28 26 25 24 23 22 20 20 19 18 18 18 17 17 17 17 17 16 16 16 16 15 15 14 14 14 14 13 12 12 12 11 11 10 10 9 9 9 9 9 9 9 9 10 10 10 10 11 11 11 12 12 12 13 13 14 15 15 16 17 18 19 20 21 22 23 23 24 24 24 24 23 23 21 20 19 17 16 15 14 13 12 11 11 11 11 11
33 33 33 33 34 34 34 34 35 35 35 35 35 35 34 33 33 32 31 29 28 27 26 24 23 22 21 20 19 19 19 19 18 18 18 18 17 17 17 16 16 16 16 16 15 15 15 15 14 14 14 13 13 13 13 13 13 13 13 14 14 14 14 14 14 14 14 15 15 15 16 16 17 18 19 20 21 22 24 25 27 28 30 31 32 32 33 33 32 31 31 29 27 26 24 22 21 19 18 17 16 16 15
34 34 34 34 35 35 35 35 35 36 36 36 37 37 37 37 36 35 35 34 33 32 31 29 28 27 26 24 23 22 22 21 21 21 20 20 20 19 19 19 18 18 18 18 18 18 18 18 18 17 18 18 17 17 17 17 17 17 17 17 17 17 17 17 17 17 17 17 17 17 18 18 19 20 21 23 24 26 28 30 32 34 36 37 38 39 40 40 40 40 40 39 38 37 35 34 32 30 29 27 26 25 24
35 35 36 36 36 36 36 36 36 37 37 38 38 38 39 39 39 39 38 38 37 36 35 34 33 32 31 29 28 27 26 26 25 24 24 23 23 22 22 22 21 21 21 21 21 21 21 21 21 21 22 22 22 22 21 21 21 20 20 20 19 19 19 18 18 18 18 18 19 19 20 20 21 22 24 26 27 30 33 35 38 40 42 44 44 45 45 45 45 45 45 45 45 45 44 44 43 42 40 39 38 36 35
37 37 37 37 37 37 37 37 38 38 38 39 39 40 40 40 41 41 41 40 40 39 39 38 37 36 35 34 33 32 31 30 29 29 28 27 27 26 26 26 25 25 25 25 25 25 25 25 25 25 25 26 26 26 25 24 24 23 23 22 22 21 21 21 20 20 20 21 21 22 22 23 24 26 27 30 32 35 38 42 44 47 50 51 51 51 51 50 50 49 49 49 49 49 49 49 49 49 49 48 48 47 46
39 39 39 39 39 39 39 39 39 40 40 40 41 41 42 42 42 42 43 43 42 42 42 41 41 40 39 38 37 36 35 35 34 33 32 33 32 32 32 31 31 30 30 29 29 29 29 29 29 29 29 29 29 29 29 28 27 26 25 25 25 24 24 24 24 24 24 25 26 26 27 29 30 32 34 36 39 42 45 48 51 54 56 58 58 58 58 57 55 54 53 53 52 52 52 52 53 53 53 54 54 54 53
42 41 41 41 41 41 41 41 42 42 42 43 43 43 44 44 44 44 44 44 44 44 44 44 44 43 43 42 41 40 39 38 38 37 37 38 38 37 37 37 36 36 35 35 35 34 34 33 33 32 32 32 32 32 32 31 30 29 28 28 28 28 28 28 29 29 30 31 33 34 35 37 39 41 43 46 48 51 53 56 58 60 61 63 63 64 64 63 62 60 59 58 57 56 56 56 55 55 56 56 56 56 57
Wind_Speed
21 21 20 20 19 19 19 18 18 18 18 18 18 18 18 18 18 18 18 18 18 18 18 18 18 18 18 18 18 18 18 18 18 19 19 19 19 19 19 19 20 20 20 20 20 21 21 21 21 21 21 21 21 22 22 22 22 23 23 23 23 23 23 24 24 24 24 24 25 25 25 25 26 26 26 26 26 27 27 27 27 27 27 27 28 28 27 27 27 27 27 27 27 27 27 26 26 26 26 26 26 26 26
22 21 21 20 20 19 19 19 18 18 18 18 18 18 18 18 18 18 18 18 18 18 18 18 18 18 18 18 18 18 18 18 18 18 18 18 19 19 19 19 19 19 19 19 19 20 20 20 20 20 20 20 20 20 21 21 21 21 22 22 22 22 22 22 22 23 23 23 23 24 24 24 25 25 25 25 25 26 26 26 26 26 26 27 27 27 27 27 27 27 27 27 26 26 26 26 26 26 26 26 26 26 26
22 21 21 21 20 20 19 19 19 19 19 18 18 18 18 18 18 18 18 18 18 18 18 18 18 18 18 18 18 18 18 18 18 18 18 18 18 18 18 19 19 19 19 19 19 19 19 19 19 19 19 19 19 19 19 20 20 20 21 21 21 21 21 21 22 22 22 22 23 23 23 23 24 24 24 25 25 25 25 25 26 26 26 26 26 26 26 26 26 26 26 26 26 26 26 26 26 26 26 26 26 26 26
22 22 21 21 21 20 20 20 20 20 19 19 19 19 19 18 18 18 18 18 18 18 18 18 18 18 18 18 18 18 18 18 18 18 19 19 19 19 19 19 19 19 19 19 19 19 19 19 19 19 19 18 18 19 19 19 19 20 20 20 20 21 21 21 21 21 21 22 22 22 22 23 23 23 24 24 24 24 25 25 25 25 25 26 26 26 26 26 26 26 26 26 26 26 26 26 26 26 26 26 26 26 26
22 21 21 21 21 21 21 21 20 20 20 20 20 19 19 19 19 19 19 19 19 19 19 18 18 19 19 19 19 19 19 19 19 19 19 19 19 19 19 19 19 19 19 19 19 19 19 19 19 19 19 18 18 18 18 18 19 19 19 19 20 20 20 20 20 21 21 21 21 21 22 22 22 22 23 23 23 24 24 24 24 25 25 25 25 25 26 26 26 26 26 26 26 26 26 26 26 26 26 26 26 26 26
22 21 21 21 21 21 21 21 21 21 21 21 21 20 20 20 20 20 20 19 19 19 19 19 19 19 19 19 19 19 19 19 19 19 19 20 20 20 20 20 20 20 20 20 20 20 20 19 19 19 19 19 19 19 18 18 18 18 19 19 19 19 20 20 20 20 20 20 21 21 21 21 21 22 22 22 23 23 23 24 24 24 24 25 25 25 25 25 25 26 26 26 26 26 26 26 26 26 26 27 27 27 27
22 21 21 21 21 21 21 22 22 22 22 21 21 21 21 21 21 20 20 20 20 20 20 20 20 20 20 20 20 20 20 20 20 20 20 20 20 20 20 21 21 21 21 21 20 20 20 20 20 20 20 20 20 19 19 19 19 19 19 19 19 19 19 20 20 20 20 20 20 21 21 21 21 22 22 22 22 23 23 23 24 24 24 24 25 25 25 25 25 26 26 26 26 26 26 27 27 27 27 27 27 27 27
22 21 21 21 21 21 21 22 22 22 22 22 22 22 22 22 21 21 21 21 21 21 21 21 21 21 21 21 21 21 21 21 21 21 21 21 21 21 21 21 21 21 21 21 21 21 21 21 21 21 21 21 21 21 21 20 20 20 20 20 20 20 20 20 20 20 21 21 21 21 21 21 22 22 22 22 23 23 23 24 24 24 24 25 25 25 25 26 26 26 26 26 26 27 27 27 27 27 27 28 28 28 28
22 22 21 21 21 21 21 21 22 22 22 22 22 22 22 22 22 22 22 22 22 22 21 21 21 21 21 21 21 21 21 21 22 22 22 22 22 22 22 22 22 22 22 22 22 22 22 22 22 22 22 22 22 22 22 22 22 22 22 22 22 22 22 22 22 22 22 22 22 22 22 22 22 23 23 23 23 24 24 24 25 25 25 25 25 26 26 26 26 26 27 27 27 27 27 28 28 28 28 28 28 28 29
22 22 22 21 21 21 21 21 21 21 22 22 22 22 23 23 23 23 23 22 22 22 22 22 22 22 22 22 22 22 22 22 22 22 22 22 22 22 22 22 23 23 23 23 23 23 23 23 23 23 23 23 23 23 23 23 23 23 23 23 23 23 23 23 23 23 23 23 23 23 24 24 24 24 24 24 25 25 25 25 25 26 26 26 26 27 27 27 27 27 27 28 28 28 28 28 28 28 28 29 29 29 29
22 22 22 22 21 21 21 21 21 21 21 22 22 22 22 23 23 23 23 23 23 23 23 23 23 23 23 23 23 23 23 23 23 23 23 23 23 23 23 23 23 23 23 24 24 24 24 24 24 24 24 24 24 24 24 24 25 25 25 25 25 25 25 25 25 25 25 25 25 25 25 25 25 25 26 26 26 26 26 26 27 27 27 27 27 27 28 28 28 28 28 28 28 29 29 29 29 29 29 29 29 29 29
22 22 22 22 21 21 21 21 21 21 21 21 21 22 22 22 23 23 23 23 24 24 24 24 24 24 24 24 24 24 24 23 23 23 24 24 24 24 24 24 24 24 24 24 25 25 25 25 25 25 25 25 25 25 25 25 26 26 26 26 26 26 26 26 26 26 26 26 26 26 27 27 27 27 27 27 27 27 28 28 28 28 28 28 28 28 29 29 29 29 29 29 29 29 29 30 30 30 30 30 30 30 30
22 22 22 21 21 21 21 21 20 20 20 20 21 21 21 22 22 23 23 23 24 24 24 24 24 24 24 25 24 24 24 24 24 24 24 24 24 24 25 25 25 25 25 25 26 26 26 26 26 26 26 26 26 26 26 26 26 26 27 27 27 27 27 27 28 28 28 28 28 28 28 28 28 28 28 28 28 29 29 29 29 29 29 29 29 30 30 30 30 30 30 30 30 30 30 30 31 31 31 31 30 30 30
21 21 21 21 21 21 21 21 20 20 20 20 21 21 21 21 22 22 23 23 23 24 24 25 25 25 25 25 25 25 25 25 25 25 25 25 25 25 25 25 26 26 26 26 26 26 27 27 27 27 27 27 27 27 27 27 27 27 27 28 28 28 28 28 28 28 29 29 29 29 29 29 29 29 29 30 30 30 30 30 30 30 30 30 31 31 31 31 31 31 31 31 31 31 31 31 32 32 32 32 32 32 31
21 21 21 21 21 20 20 20 20 20 20 20 21 21 21 21 21 22 22 22 23 23 24 24 25 25 26 26 26 26 26 26 26 26 26 26 26 26 26 26 26 26 26 27 27 27 27 27 28 28 28 28 28 28 28 28 28 28 28 29 29 29 29 29 29 29 29 30 30 30 30 30 30 30 30 30 31 31 31 31 31 31 31 31 32 32 32 32 32 32 32 32 32 32 33 33 33 33 33 33 33 33 33
20 20 20 20 20 20 20 20 20 20 20 20 20 21 21 21 21 21 22 22 22 23 23 24 24 25 25 26 26 26 26 26 27 27 27 27 27 27 27 27 27 27 27 27 28 28 28 28 28 28 29 29 29 29 29 29 29 30 30 30 30 30 30 30 30 30 30 30 31 31 31 31 31 31 31 32 32 32 32 32 32 32 32 33 33 33 33 33 33 33 33 34 34 34 34 34 34 34 34 34 34 34 34
20 20 20 20 20 20 20 20 20 20 20 20 20 20 21 21 21 21 21 21 22 22 23 23 24 24 25 25 26 26 26 26 27 27 27 27 27 28 28 28 28 28 28 28 28 28 29 29 29 29 29 30 30 30 30 30 30 31 31 31 31 31 31 31 31 32 32 32 32 32 32 32 32 32 32 32 33 33 33 33 33 33 34 34 34 34 34 34 34 35 35 35 35 35 35 35 35 35 36 36 36 36 36
21 20 20 20 20 20 20 20 20 20 20 20 20 20 20 20 21 21 21 21 21 21 22 22 23 23 24 24 25 25 26 26 26 27 27 27 28 28 28 28 28 29 29 29 29 29 30 30 30 30 30 30 30 31 31 31 31 32 32 32 32 32 32 33 33 33 33 33 33 33 33 33 33 33 34 34 34 34 34 34 34 34 35 35 35 35 35 35 36 36 36 36 36 36 37 37 37 37 37 37 37 37 37
21 21 21 21 21 20 20 20 20 20 20 20 20 20 20 20 20 20 20 20 21 21 21 22 22 23 23 23 24 24 25 25 26 26 27 27 28 28 28 29 29 29 29 30 30 30 30 31 31 31 31 31 31 32 32 32 32 32 33 33 33 33 34 34 34 34 34 34 34 34 34 34 35 35 35 35 35 35 35 35 36 36 36 36 36 36 37 37 37 37 37 37 37 38 38 38 38 38 38 38 39 39 39
21 21 21 21 21 21 21 21 21 20 20 20 20 20 20 20 20 20 20 20 20 20 21 21 22 22 22 23 23 23 24 24 25 25 26 26 27 27 28 28 29 29 30 30 30 31 31 31 31 32 32 32 32 32 33 33 33 33 34 34 34 34 35 35 35 35 35 35 35 35 35 36 36 36 36 36 36 36 36 37 37 37 37 37 37 38 38 38 38 38 38 39 39 39 39 39 39 39 40 40 40 40 40
21 21 21 21 22 22 22 21 21 21 21 21 21 21 21 21 21 21 20 20 20 21 21 21 21 22 22 22 22 22 23 23 24 24 25 25 26 26 27 28 28 29 29 30 30 30 31 31 32 32 32 33 33 33 33 34 34 34 34 35 35 35 36 36 36 36 36 36 36 36 36 37 37 37 37 37 37 38 38 38 38 38 38 38 39 39 39 39 39 40 40 40 40 40 40 40 40 41 41 41 41 41 41
21 21 22 22 22 22 22 22 22 22 22 22 22 22 21 21 21 21 21 21 21 21 21 22 22 22 22 22 22 22 23 23 23 23 24 24 24 25 25 26 27 27 28 28 29 30 30 31 31 31 32 32 33 33 33 34 34 34 35 35 35 36 36 36 37 37 37 37 37 37 38 38 38 38 38 38 39 39 39 39 39 39 40 40 40 40 40 40 41 41 41 41 41 41 41 41 42 42 42 42 42 42 42
21 22 22 22 23 23 23 23 23 23 23 23 23 23 23 23 23 23 23 22 22 22 22 23 23 23 23 23 23 23 23 23 23 24 24 24 24 24 24 25 25 26 26 27 27 28 29 29 30 30 31 31 32 32 33 33 34 34 34 35 35 36 36 36 37 37 37 38 38 38 38 39 39 39 39 39 40 40 40 40 40 41 41 41 41 41 41 42 42 42 42 42 42 42 42 43 43 43 43 43 43 43 43
22 22 22 23 23 23 24 24 24 24 24 24 24 24 24 24 24 24 24 24 23 23 23 23 24 24 24 24 24 24 24 24 24 24 24 24 24 24 24 24 24 25 25 26 26 27 27 28 28 29 30 30 31 31 32 32 33 33 34 34 35 35 36 36 36 37 37 37 38 38 38 39 39 39 40 40 40 41 41 41 41 41 42 42 42 42 42 43 43 43 43 43 43 43 43 44 44 44 44 44 44 44 45
22 23 23 23 24 24 24 25 25 25 25 25 25 25 25 25 25 25 25 25 24 24 24 24 24 24 24 25 25 25 25 25 25 25 25 25 25 25 25 25 25 25 25 25 26 26 27 27 27 28 28 29 29 30 30 31 31 32 32 33 34 34 35 35 36 36 36 37 37 37 38 38 39 39 39 40 40 41 41 41 41 42 42 42 42 43 43 43 43 44 44 44 44 44 44 44 45 45 45 45 45 45 46
23 23 24 24 24 24 25 25 25 26 26 26 26 26 26 26 26 26 26 25 25 25 25 25 25 25 25 25 25 25 25 25 26 26 26 26 26 26 26 26 26 26 26 26 26 26 27 27 27 28 28 28 29 29 29 30 30 31 31 32 32 33 33 34 34 35 35 36 36 37 37 37 38 38 39 39 39 40 40 41 41 41 42 42 42 42 43 43 43 43 44 44 44 44 45 45 45 45 46 46 46 46 46
24 24 24 25 25 25 25 26 26 26 26 26 26 27 27 27 27 27 27 26 26 26 26 26 26 26 26 26 26 26 26 26 26 26 26 26 26 26 26 26 26 26 27 27 27 27 27 27 28 28 28 29 29 29 30 30 30 30 31 31 31 32 32 33 34 34 35 35 35 36 36 37 37 37 38 38 39 39 39 40 40 40 41 41 41 42 42 42 43 43 43 44 44 44 44 45 45 45 46 46 46 47 47
25 25 25 25 25 26 26 26 27 27 27 27 27 27 28 28 28 28 28 28 28 28 28 28 27 27 27 27 27 27 27 27 27 27 27 27 27 27 27 27 27 27 27 27 28 28 28 28 28 29 29 29 30 30 30 30 31 31 31 31 31 32 32 33 33 34 34 34 35 35 36 36 36 37 37 37 38 38 39 39 39 40 40 40 41 41 41 42 42 42 43 43 43 43 44 44 44 45 45 46 46 46 47
25 25 25 26 26 26 26 27 27 27 28 28 28 28 28 28 29 29 29 29 29 29 29 29 29 29 29 29 29 28 28 28 28 28 28 28 28 28 28 28 28 28 28 28 29 29 29 29 29 29 30 30 30 31 31 31 32 32 32 32 32 33 33 33 34 34 34 35 35 35 36 36 36 37 37 37 38 38 39 39 39 40 40 40 40 41 41 41 41 42 42 42 43 43 43 43 44 44 44 45 45 46 46
25 25 25 26 26 26 27 27 27 28 28 28 29 29 29 29 29 29 29 29 30 30 30 30 30 30 30 30 30 30 30 30 30 29 29 29 29 29 29 29 29 29 30 30 30 30 30 30 31 31 31 31 31 32 32 32 33 33 33 33 33 34 34 34 35 35 35 35 36 36 36 37 37 37 38 38 38 39 39 39 40 40 40 41 41 41 41 41 42 42 42 43 43 43 43 44 44 44 44 45 45 45 46
25 25 25 26 26 26 26 27 27 28 28 28 29 29 29 30 30 30 30 30 30 30 30 30 31 31 31 31 31 31 31 31 31 31 31 31 30 30 31 31 31 31 31 31 32 32 32 32 32 32 33 33 33 33 33 34 34 34 34 34 34 35 35 35 36 36 36 36 37 37 37 37 38 38 38 39 39 39 40 40 40 41 41 41 41 41 42 42 42 42 43 43 43 43 44 44 44 44 45 45 45 45 46
25 25 25 25 26 26 26 27 27 27 28 28 29 29 30 30 30 30 31 31 31 31 31 31 31 31 31 31 31 31 31 31 31 32 32 32 32 32 32 32 32 32 33 33 33 34 34 34 34 34 35 35 35 35 35 35 35 35 35 35 35 36 36 36 36 36 36 36 36 37 37 37 37 38 38 38 39 39 39 40 40 40 40 41 41 41 41 42 42 42 42 43 43 43 44 44 44 45 45 45 45 46 46
25 25 25 25 25 26 26 26 27 27 28 28 29 29 30 30 31 31 31 32 32 32 32 32 32 32 32 32 32 32 32 32 32 32 32 33 33 33 33 33 33 34 34 34 35 35 35 36 36 36 36 36 36 36 36 36 36 36 36 36 36 36 36 36 36 36 36 36 36 36 36 36 36 37 37 37 37 38 38 38 39 39 39 39 39 40 40 40 41 41 41 42 42 42 43 43 43 44 44 44 45 45 46
25 25 25 25 26 26 26 26 27 27 28 28 29 29 30 30 31 31 32 32 32 33 33 33 33 33 33 33 33 33 33 33 33 33 33 34 34 34 34 34 34 34 35 35 36 36 36 36 37 37 37 37 37 37 37 37 37 37 37 37 37 36 36 36 36 36 36 35 35 35 35 35 36 36 36 36 36 36 37 37 37 38 38 38 38 39 39 39 40 40 40 40 41 41 41 42 42 43 43 43 44 44 45
25 25 25 26 26 26 26 27 27 27 28 28 29 29 30 30 31 31 32 32 33 33 33 34 34 34 34 35 35 34 34 34 34 34 35 35 35 35 35 35 35 35 35 35 36 36 36 36 37 37 37 37 37 37 37 37 37 36 36 36 36 36 36 36 36 36 36 36 36 36 36 36 36 36 36 36 36 36 36 37 37 37 38 38 38 38 39 39 39 40 40 40 41 41 41 41 42 42 42 43 43 44 44
26 26 26 26 26 27 27 27 27 28 28 28 29 29 30 30 31 31 32 32 33 33 34 34 34 35 35 35 35 35 35 35 35 35 36 36 35 35 35 35 35 35 35 35 35 36 36 36 36 36 36 36 36 36 36 36 36 36 36 36 36 36 36 36 36 36 36 36 36 36 36 36 37 37 37 37 37 37 37 37 38 38 38 38 39 39 39 39 40 40 40 41 41 41 42 42 42 42 43 43 43 44 44
27 27 27 27 27 27 27 27 28 28 28 28 29 29 29 30 30 31 31 32 32 33 33 34 34 35 35 35 35 35 35 36 36 36 36 36 36 36 36 36 35 35 35 35 35 35 35 35 35 35 35 35 35 35 35 35 35 35 35 36 36 36 36 36 36 37 37 37 37 37 37 37 38 38 38 38 38 38 38 39 39 39 39 39 40 40 40 40 41 41 41 41 42 42 42 42 43 43 43 44 44 44 44
27 27 27 27 27 28 28 28 28 28 28 29 29 29 29 30 30 31 31 32 32 32 33 33 34 34 34 34 35 35 35 35 35 35 36 36 36 36 35 35 35 35 35 35 34 34 34 34 34 34 34 34 34 34 35 35 35 35 36 36 36 36 37 37 37 37 37 38 38 38 38 38 38 39 39 39 39 40 40 40 40 40 41 41 41 41 42 42 42 42 42 43 43 43 43 44 44 44 44 44 45 45 45
27 28 28 28 28 28 28 28 28 28 29 29 29 29 30 30 30 31 31 31 32 32 33 33 33 33 34 34 34 34 34 35 35 35 35 35 35 35 35 35 35 34 34 34 34 34 34 34 34 34 34 34 35 35 35 36 36 36 36 37 37 37 37 38 38 38 38 38 39 39 39 39 39 40 40 40 40 41 41 41 42 42 42 43 43 43 44 44 44 44 44 45 45 45 45 45 45 46 46 46 46 46 46
28 28 28 28 28 28 29 29 29 29 29 29 29 30 30 30 30 31 31 31 32 32 32 33 33 33 33 33 34 34 34 34 34 34 34 34 34 34 35 34 34 34 34 34 34 34 34 34 34 34 35 35 36 36 36 37 37 37 37 38 38 38 38 38 39 39 39 39 39 39 40 40 40 41 41 41 42 42 43 43 43 44 44 45 45 45 46 46 46 46 47 47 47 47 47 47 48 48 48 48 48 48 48
28 28 29 29 29 29 29 29 29 29 29 30 30 30 30 30 31 31 31 31 32 32 32 32 33 33 33 33 33 33 33 33 33 33 34 34 34 34 34 34 34 34 34 34 34 34 34 35 35 35 36 36 37 37 38 38 38 38 39 39 39 39 39 39 39 39 40 40 40 41 41 41 42 42 42 43 43 44 44 45 45 46 46 46 47 47 47 48 48 48 48 49 49 49 49 49 49 50 49 50 50 50 50
29 29 29 29 29 29 29 30 30 30 30 30 30 30 30 31 31 31 31 31 32 32 32 32 33 33 33 33 33 33 33 33 33 33 33 33 33 34 34 34 34 34 34 34 35 35 35 35 36 36 37 38 38 38 39 39 39 39 40 40 40 40 40 40 40 40 41 41 42 42 43 43 43 44 44 45 45 46 46 47 47 47 48 48 48 49 49 49 49 50 50 50 50 50 51 51 51 51 51 51 51 51 51
30 30 30 30 30 30 30 30 30 30 30 30 30 30 30 31 31 31 31 31 32 32 32 32 33 33 33 33 33 33 33 33 33 33 33 33 34 34 34 34 35 35 35 35 36 36 36 36 37 37 38 39 39 40 40 40 40 41 41 41 41 41 41 41 42 42 42 43 43 44 44 45 45 46 46 47 47 48 48 48 49 49 49 50 50 50 50 51 51 51 51 51 51 51 52 52 52 52 52 52 52 52 52
30 30 30 30 30 30 30 30 30 30 30 30 30 30 31 31 31 31 31 32 32 32 32 32 33 33 33 33 33 33 33 33 34 34 34 34 34 34 35 35 35 36 36 36 37 37 37 38 38 38 39 40 40 40 41 41 41 42 42 42 43 43 43 43 43 44 44 45 45 46 46 47 47 48 48 48 49 49 49 50 50 50 51 51 51 51 52 52 52 52 52 52 53 53 53 53 53 52 52 52 52 52 52
31 31 31 31 31 31 31 31 31 31 31 31 31 31 31 31 31 31 31 32 32 32 32 32 33 33 33 33 33 33 34 34 34 34 34 35 35 35 36 36 36 37 37 38 38 38 38 39 39 39 40 40 41 41 42 42 42 43 43 44 44 44 44 45 45 46 46 46 47 47 48 48 49 49 49 50 50 50 51 51 51 51 52 52 52 52 53 53 53 53 53 53 54 54 54 53 53 53 53 53 53 53 53
32 32 32 32 32 32 32 32 32 32 32 32 32 32 32 32 32 32 32 32 32 32 32 33 33 33 33 34 34 34 34 34 35 35 35 35 36 36 37 37 38 38 38 39 39 40 40 40 40 41 41 41 42 42 42 43 43 44 44 45 45 46 46 46 47 47 48 48 49 49 49 50 50 51 51 51 51 52 52 52 52 52 53 53 53 53 53 53 54 54 54 54 54 54 54 54 54 54 54 54 54 54 53
32 32 32 32 32 32 33 33 33 33 33 33 33 33 33 33 32 32 32 32 33 33 33 33 34 34 34 34 35 35 35 35 35 36 36 36 37 37 38 38 39 39 40 40 40 41 41 41 41 42 42 43 43 43 43 44 45 45 46 46 47 47 48 48 49 49 49 50 50 51 51 51 52 52 52 53 53 53 53 53 53 54 54 54 54 54 54 54 54 54 54 55 55 55 55 55 54 54 54 54 54 54 54
32 32 33 33 33 33 33 33 34 34 34 34 34 34 34 34 34 34 33 33 33 34 34 34 34 35 35 35 35 36 36 36 37 37 37 37 38 38 39 39 40 40 41 41 42 42 42 42 43 43 44 44 44 45 45 46 46 47 47 48 48 49 49 50 50 51 51 52 52 53 53 53 54 54 54 54 55 55 55 55 55 55 55 55 55 55 55 55 55 55 55 55 55 55 55 55 55 55 55 55 55 55 55
32 32 33 33 33 33 34 34 34 35 35 35 35 35 35 35 35 35 35 35 35 35 35 35 35 36 36 36 36 37 37 38 38 38 38 38 39 39 40 40 41 41 42 42 43 43 43 44 44 45 45 46 46 46 47 47 48 48 49 50 50 51 52 52 52 53 53 54 54 55 55 55 55 56 56 56 56 56 56 56 56 56 56 56 56 56 56 56 56 56 56 56 56 56 56 56 56 56 55 55 55 55 55
33 33 33 33 33 34 34 34 35 35 35 36 36 36 37 37 37 37 37 36 36 36 36 37 37 37 37 38 38 38 38 39 39 39 39 39 40 40 40 41 41 42 43 43 44 44 44 45 45 46 47 47 48 48 49 49 50 50 51 51 52 53 53 54 54 55 55 56 56 57 57 57 57 57 57 57 57 57 57 57 57 57 57 57 57 57 57 57 57 57 57 57 57 57 57 57 56 56 56 56 56 56 56
33 33 34 34 34 34 34 35 35 35 36 36 37 37 37 38 38 38 38 38 38 38 38 38 38 39 39 39 39 39 40 40 40 40 41 41 41 41 41 42 42 42 43 44 45 45 45 46 46 47 47 48 48 49 49 50 51 51 52 53 53 54 55 55 56 56 57 57 58 58 58 58 58 58 58 58 58 58 58 58 57 57 57 57 57 57 57 57 57 57 57 57 57 57 57 57 57 57 57 57 57 57 57
34 35 35 35 35 35 35 35 35 36 36 36 37 37 38 38 39 39 39 39 40 40 40 40 40 40 40 41 41 41 41 41 42 42 42 42 43 43 43 43 43 43 43 44 45 46 46 46 47 47 48 48 49 49 50 50 51 52 52 53 54 54 55 56 57 57 58 58 59 59 59 59 59 59 59 58 58 58 58 58 58 58 57 57 57 57 57 57 57 57 58 58 58 58 58 58 58 58 58 58 58 58 59
35 35 36 36 36 36 36 36 36 36 36 37 37 37 38 38 39 39 40 40 41 41 41 41 42 42 42 42 43 43 43 43 43 43 44 44 44 44 44 44 44 44 44 44 45 45 46 46 47 48 48 49 49 50 50 51 51 52 53 53 54 54 55 56 56 57 58 58 59 59 59 59 59 59 59 59 59 58 58 58 58 58 58 58 58 58 58 58 58 58 58 58 58 58 58 58 59 59 59 59 59 59 59
36 36 36 37 37 37 37 37 37 37 37 37 38 38 38 39 39 40 40 41 41 41 42 42 43 43 43 44 44 44 45 45 45 45 45 45 45 46 46 46 46 46 46 46 46 46 46 46 47 47 48 49 49 50 50 50 51 52 52 53 53 54 55 55 56 56 57 57 58 58 58 59 59 59 59 59 59 59 59 59 59 59 59 59 59 59 59 58 58 58 58 59 59 59 59 59 59 59 60 60 60 60 60
37 37 37 38 38 38 38 38 38 38 38 38 38 39 39 39 39 40 40 41 41 42 42 43 43 44 44 45 45 46 46 46 46 46 47 47 47 47 47 48 47 47 48 47 47 48 48 47 47 47 48 48 49 49 50 50 51 51 52 52 53 53 54 54 54 55 55 56 56 57 57 57 58 58 59 59 60 60 60 60 61 61 61 61 61 60 60 60 60 60 60 60 60 60 60 60 60 60 61 61 61 61 61
38 38 38 38 39 39 39 39 39 39 39 39 39 39 39 40 40 40 41 41 42 42 43 43 44 44 45 45 46 46 47 47 47 48 48 48 49 49 49 49 49 49 49 49 49 49 49 49 49 48 48 49 49 50 50 51 51 51 52 52 52 53 53 53 54 54 54 55 55 55 56 56 57 57 58 58 59 60 60 61 62 62 62 63 63 63 63 63 63 63 62 62 62 62 62 62 62 62 62 62 62 62 62
39 39 39 40 40 40 40 40 40 40 40 40 40 40 40 40 41 41 41 41 42 42 43 43 44 44 45 45 46 47 47 48 48 48 49 49 50 50 50 50 51 51 51 51 51 51 51 51 50 50 50 50 50 50 51 51 51 52 52 52 52 53 53 53 53 54 54 54 55 55 55 56 56 56 57 57 58 59 60 60 61 62 63 64 64 65 65 65 65 65 65 65 64 64 64 64 64 64 64 64 64 64 64
40 41 41 41 41 41 41 41 42 42 42 42 41 41 41 41 41 42 42 42 42 43 43 43 44 44 45 45 46 47 47 48 48 49 49 50 50 50 51 51 51 52 52 52 52 52 53 53 52 52 51 51 51 51 51 52 52 52 52 52 53 53 53 53 53 54 54 54 55 55 55 55 56 56 56 57 57 58 59 60 61 62 63 64 65 66 66 67 67 67 67 67 66 66 66 66 66 66 66 65 65 65 65
42 42 42 42 43 43 43 43 43 43 43 43 43 43 43 43 43 43 43 43 43 43 44 44 44 45 45 46 46 47 47 48 48 49 49 50 50 50 51 51 52 52 52 53 53 53 53 54 54 53 53 52 51 51 51 52 52 52 52 53 53 53 53 53 54 54 54 54 55 55 55 56 56 57 57 58 58 59 59 60 61 62 63 64 65 66 66 67 67 68 68 68 68 67 67 67 67 67 67 67 67 67 67
43 43 44 44 44 44 44 44 45 45 45 45 44 44 44 44 44 44 44 44 45 45 45 45 45 46 46 46 47 47 47 48 48 48 49 49 50 50 51 51 52 52 52 53 53 53 54 54 54 54 54 53 53 51 51 51 52 52 53 53 53 53 53 54 54 54 54 55 55 55 56 56 57 58 58 59 59 60 60 61 61 62 63 64 64 65 66 66 67 67 67 67 67 67 67 67 67 67 67 67 67 67 67
45 45 45 45 45 46 46 46 46 46 46 46 46 46 46 46 46 46 46 46 46 46 46 46 46 47 47 47 47 48 48 48 48 48 49 49 50 50 50 51 51 52 52 52 53 53 53 54 54 54 54 54 54 53 52 52 52 52 53 53 53 54 54 54 54 55 55 55 56 56 57 57 58 58 59 59 60 60 61 61 61 62 62 63 63 64 65 65 65 66 66 66 66 66 66 66 66 66 66 66 66 66 67
Wind_Direction
292 292 291 291 291 291 291 291 291 291 292 292 292 292 292 292 291 290 289 288 286 285 284 283 282 282 281 280 279 279 278 277 277 276 276 276 276 276 276 276 276 276 277 277 277 277 278 278 278 278 279 279 279 280 280 280 280 280 280 280 280 279 279 279 279 278 278 278 278 277 277 277 277 277 276 276 276 275 275 275 275 275 274 275 275 275 275 275 275 275 275 275 275 275 275 275 275 275 275 276 276 276 276
292 291 291 290 290 290 289 289 289 290 290 291 291 291 292 292 291 291 290 289 287 286 285 284 283 282 281 280 280 279 278 277 277 276 275 275 275 274 274 274 274 274 275 275 276 276 276 277 277 277 278 278 278 279 279 280 280 280 281 281 280 280 280 279 279 279 278 278 278 277 277 277 277 277 276 276 276 275 275 275 275 274 274 274 274 274 274 274 274 274 274 275 275 275 275 275 275 275 275 275 275 275 275
292 291 290 289 289 288 288 288 288 288 288 289 289 290 290 290 290 290 290 289 288 287 286 284 283 282 281 280 279 278 278 277 276 276 275 274 274 273 273 273 272 272 273 273 273 274 274 274 275 275 276 276 277 277 278 278 279 279 279 280 280 279 279 279 278 278 278 277 277 276 276 276 276 276 276 276 275 275 275 274 274 274 274 274 274 274 274 274 274 274 274 274 274 274 274 274 274 274 274 274 274 274 274
293 292 290 289 288 287 287 287 286 286 287 287 288 288 288 289 289 289 289 288 288 287 286 285 284 283 281 280 279 278 278 277 276 275 275 274 274 273 273 272 271 271 271 271 271 271 271 272 272 273 273 273 274 274 275 275 276 276 277 277 277 277 277 277 277 276 276 276 275 275 275 275 274 274 274 274 274 274 274 274 273 273 273 273 273 273 273 273 273 273 273 273 273 273 273 273 273 274 274 274 274 274 274
294 293 291 289 288 287 286 285 285 285 285 285 286 286 286 287 287 287 287 287 287 287 286 285 284 283 282 281 280 279 278 277 276 276 275 274 274 274 273 272 271 271 270 270 269 269 269 270 270 270 270 270 270 271 271 272 273 273 274 274 274 275 275 275 274 274 274 274 273 273 273 273 273 273 273 273 273 273 272 272 272 272 272 272 272 272 272 272 272 272 272 272 272 272 272 273 273 273 273 273 273 273 273
296 294 292 290 288 286 285 285 284 284 284 284 284 284 285 285 285 285 286 286 286 285 285 285 284 284 283 282 281 280 279 278 278 277 276 275 275 274 274 273 272 272 271 270 269 269 268 268 268 268 268 268 268 268 268 269 269 270 270 271 271 272 272 272 272 272 272 272 271 271 271 271 271 271 271 271 271 270 270 270 270 270 270 270 270 270 271 271 271 271 271 271 271 271 271 272 272 272 272 272 272 272 272
296 295 293 291 289 287 285 284 283 283 283 283 283 283 283 283 283 284 284 284 284 284 284 284 284 284 283 283 282 281 281 280 279 278 277 277 276 276 275 275 274 273 273 272 271 270 270 269 269 269 268 268 267 267 266 266 266 267 267 268 268 268 269 269 270 270 270 270 269 269 269 269 269 269 269 269 269 269 269 269 269 269 269 269 269 269 269 269 269 270 270 270 270 270 270 271 271 271 271 271 271 271 272
297 296 294 292 290 288 286 285 284 283 282 282 282 282 282 282 282 282 283 283 283 283 283 283 283 283 283 283 283 282 282 281 280 280 279 278 278 277 276 276 276 275 275 274 273 273 272 271 271 270 269 269 268 267 267 266 266 265 266 266 266 266 266 267 267 267 267 267 267 267 268 268 268 267 267 267 267 267 267 267 267 267 267 267 267 267 267 268 268 268 268 268 269 269 269 269 269 270 270 270 270 270 271
298 297 296 294 293 290 288 286 285 283 283 282 282 282 282 282 282 282 282 282 282 282 282 282 282 282 282 282 282 282 282 281 281 280 280 279 279 278 277 277 276 276 276 275 275 275 274 273 273 272 272 271 270 270 269 268 267 266 266 265 265 265 265 265 265 265 265 266 266 266 266 266 266 266 266 266 266 266 266 266 266 266 266 266 266 266 266 266 266 266 267 267 267 267 268 268 268 268 269 269 269 269 269
299 299 298 296 295 293 291 289 287 285 284 283 282 281 281 281 281 281 281 281 281 281 281 281 281 281 281 281 281 281 280 280 280 280 280 279 279 278 278 277 277 276 276 276 275 275 275 274 274 274 273 273 273 272 271 270 269 268 267 267 266 266 266 265 265 265 265 265 264 264 264 264 265 265 265 265 265 265 265 265 265 265 265 265 265 265 265 265 265 265 265 265 265 266 266 266 266 267 267 267 267 268 268
301 300 299 298 297 295 293 291 289 287 286 284 283 282 281 280 280 280 280 280 280 280 279 280 279 279 279 279 279 279 279 279 278 278 278 278 278 277 277 276 276 276 275 275 275 274 274 274 274 274 274 274 274 274 274 273 272 271 271 270 269 268 268 267 267 266 266 265 265 265 264 264 264 264 264 264 264 264 264 264 264 264 264 264 264 264 264 264 264 264 264 264 264 264 264 264 264 265 265 265 265 266 266
303 302 301 300 298 297 295 294 292 290 287 285 284 282 281 280 279 279 279 279 279 278 278 278 278 278 278 277 277 277 277 277 277 277 277 277 276 276 276 276 275 275 275 274 274 274 273 273 273 273 273 273 273 274 274 274 274 274 273 273 272 271 271 270 270 269 268 267 267 266 266 265 265 265 264 264 264 264 264 263 263 263 263 263 263 263 263 263 263 263 263 263 263 263 263 263 263 263 263 264 264 264 264
304 303 302 301 299 298 297 295 293 291 289 287 285 283 281 280 279 278 278 278 278 278 277 277 277 277 277 277 276 276 276 276 276 276 276 276 275 275 275 275 274 274 274 274 274 274 273 273 273 273 273 273 273 273 273 273 273 274 274 274 273 273 273 272 272 272 271 270 270 269 269 268 267 267 266 266 265 265 265 264 264 264 263 263 263 263 263 263 263 263 263 263 263 263 263 263 263 263 263 263 263 263 263
304 303 302 301 300 299 298 297 295 293 291 289 287 285 283 281 280 279 278 278 277 277 277 277 277 277 276 276 276 276 276 276 276 276 275 275 275 275 274 274 274 274 274 274 274 274 274 274 273 273 273 273 273 272 272 272 272 272 273 273 273 273 273 273 273 272 272 272 272 271 271 270 270 269 269 268 268 267 267 266 266 265 265 264 264 264 264 263 263 263 262 262 262 262 262 262 262 262 262 262 262 262 262
303 303 303 302 301 301 300 299 297 295 293 292 290 288 286 284 283 281 280 279 278 278 277 277 277 277 276 276 276 276 276 276 276 276 276 275 275 275 275 274 274 274 274 274 274 274 274 274 274 274 273 273 273 273 273 272 272 272 272 272 272 272 272 272 272 272 272 272 272 272 272 271 271 271 270 270 270 269 269 268 268 267 267 266 266 265 265 265 264 264 263 263 263 263 262 262 262 262 262 262 262 261 261
303 303 303 303 302 302 302 301 300 298 297 295 293 292 290 288 287 285 284 282 281 280 279 278 277 277 276 276 276 276 276 276 276 276 276 276 275 275 275 275 274 274 274 274 273 273 273 273 273 273 273 273 273 273 273 273 272 272 272 272 272 272 271 271 271 271 271 271 271 271 271 271 271 271 271 270 270 270 270 269 269 269 268 268 268 267 267 266 266 265 265 265 264 264 263 263 263 263 262 262 262 262 261
302 302 303 303 303 303 303 302 302 301 300 299 298 296 294 293 291 290 288 286 284 283 281 280 279 278 277 277 276 276 276 276 276 276 275 275 275 275 275 275 274 274 274 273 273 273 273 272 272 272 272 272 272 272 272 272 272 272 272 272 272 272 272 271 271 271 271 271 271 270 270 270 270 270 270 270 270 270 270 269 269 269 269 269 268 268 268 267 267 267 267 266 266 265 265 265 264 264 264 263 263 263 262
301 302 302 303 303 303 303 303 303 302 302 301 301 300 298 297 295 294 292 290 288 286 285 283 281 280 279 278 277 277 276 276 276 275 275 275 275 275 274 274 274 274 274 273 273 273 272 272 272 272 271 271 271 271 271 271 272 272 272 272 271 271 271 271 271 271 271 271 271 271 270 270 270 270 270 270 270 269 269 269 269 269 269 269 268 268 268 268 268 267 267 267 267 267 266 266 266 266 265 265 265 264 264
301 301 302 302 302 302 302 302 302 302 302 302 302 301 300 299 298 297 296 294 292 290 288 287 285 284 282 281 280 279 278 277 277 276 276 275 275 275 275 274 274 274 274 274 273 273 273 273 272 272 272 271 271 271 271 271 271 271 271 271 271 271 271 271 271 271 271 271 271 271 271 271 271 271 270 270 270 270 270 269 269 269 269 269 269 268 268 268 268 267 267 267 267 267 267 267 266 266 266 266 266 266 265
300 300 301 301 301 301 301 301 301 301 301 301 301 301 300 300 299 299 298 296 295 294 292 291 289 288 287 285 284 283 282 280 279 278 278 277 276 276 276 275 275 275 274 274 274 274 274 273 273 273 273 272 272 272 271 271 271 271 271 271 271 271 271 271 270 270 270 271 271 271 271 271 271 271 271 271 270 270 270 270 270 270 269 269 269 269 269 268 268 268 268 267 267 267 267 267 267 266 266 266 266 266 266
299 299 299 299 299 299 299 299 299 299 299 299 299 299 299 299 299 298 298 298 297 296 295 294 293 292 291 290 289 287 286 284 283 282 281 280 279 278 278 277 276 276 276 275 275 275 274 274 274 274 274 273 273 273 272 272 272 272 271 271 271 271 271 271 271 271 271 270 270 270 270 270 270 270 270 270 270 270 270 270 270 270 269 269 269 269 269 269 268 268 268 268 268 268 267 267 267 267 266 266 266 266 266
298 298 298 298 298 297 297 297 297 297 297 297 297 297 297 298 298 298 298 298 298 297 297 296 296 295 294 293 292 291 290 289 287 286 285 283 282 281 280 279 279 278 277 277 276 276 276 275 275 275 274 274 274 274 273 273 273 273 272 272 272 272 272 272 271 271 271 271 271 271 271 270 270 270 270 270 270 270 269 269 269 269 269 269 269 269 269 269 268 268 268 268 268 268 268 268 267 267 267 267 266 266 266
297 297 296 296 296 296 296 296 296 296 296 296 296 297 297 297 297 297 297 297 298 297 297 297 297 296 296 295 295 294 292 291 290 289 288 287 285 284 283 282 281 281 280 279 279 278 278 277 277 276 276 275 275 275 275 274 274 274 273 273 273 273 273 272 272 272 272 272 272 271 271 271 271 270 270 270 270 270 269 269 269 269 269 269 269 269 268 268 268 268 268 268 268 268 268 268 268 268 267 267 267 267 267
298 297 296 296 295 295 295 295 295 295 295 295 296 296 296 296 296 296 296 296 296 296 296 296 296 295 295 295 294 294 293 292 291 290 290 288 287 286 285 284 284 283 282 282 281 281 280 279 279 278 278 277 277 276 276 276 275 275 275 274 274 274 274 273 273 273 273 273 273 272 272 272 272 271 271 271 271 270 270 270 270 269 269 269 269 269 269 269 268 268 268 268 268 268 268 268 268 268 268 267 267 267 267
299 298 296 296 295 294 294 294 294 294 294 295 295 295 295 295 295 295 295 294 294 294 294 293 293 293 292 292 292 292 291 291 291 290 290 289 289 288 287 286 285 285 284 284 283 282 282 281 281 280 280 279 279 278 277 277 276 276 276 276 276 275 275 275 275 274 274 274 273 273 273 273 273 272 272 272 272 271 271 271 271 271 270 270 270 270 269 269 269 269 269 268 268 268 268 268 268 268 268 268 267 267 267
299 298 297 296 295 294 294 294 294 294 293 293 293 293 292 292 292 292 292 291 291 291 290 290 289 289 289 288 288 288 288 288 288 288 289 288 288 288 288 287 286 286 285 285 284 284 283 283 282 282 281 281 280 280 279 278 278 277 277 277 277 277 276 276 276 276 275 275 274 274 274 274 273 273 273 273 273 273 272 272 272 272 272 271 271 271 270 270 270 270 269 269 269 268 268 268 268 268 268 268 267 267 267
299 298 297 296 295 294 294 293 292 292 291 291 291 290 290 289 289 288 288 288 287 287 287 286 286 286 285 285 285 285 285 285 286 286 286 286 287 287 287 286 286 286 285 285 284 284 284 283 283 283 283 282 282 281 281 280 279 279 278 278 278 277 277 277 277 276 276 276 276 275 275 275 274 274 274 274 274 274 273 273 273 273 273 272 272 272 271 271 271 271 270 270 270 269 269 269 268 268 268 268 268 267 267
300 299 298 297 296 295 294 293 292 291 290 290 289 288 287 287 286 285 285 285 284 284 284 284 283 283 283 283 283 283 283 284 284 284 284 285 285 285 285 285 285 285 285 285 284 284 284 284 283 283 283 283 282 282 282 281 281 280 280 279 279 278 278 277 277 277 277 276 276 276 276 276 276 275 275 275 275 275 274 274 274 274 273 273 273 273 272 272 272 272 271 271 271 270 270 270 269 269 269 268 268 268 268
302 300 299 298 297 296 295 294 293 292 291 290 289 288 287 287 286 285 285 284 283 283 283 282 282 282 282 282 282 282 283 283 283 283 284 284 284 284 285 285 285 285 284 284 284 284 284 284 283 283 283 282 282 282 282 282 281 281 281 280 280 279 279 278 278 277 277 277 277 277 276 276 276 276 276 276 275 275 275 275 274 274 274 274 273 273 273 273 273 273 272 272 272 271 271 271 270 270 269 269 269 268 268
303 302 301 300 299 297 296 295 294 294 293 292 291 290 290 289 288 287 286 286 285 284 284 283 283 282 282 282 282 282 282 283 283 283 283 284 284 284 285 285 285 285 285 285 285 285 284 284 283 283 283 282 282 282 281 281 281 281 280 280 280 279 279 278 278 278 277 277 277 277 277 276 276 276 276 276 276 275 275 275 275 275 274 274 274 274 274 274 273 273 273 273 272 272 272 271 271 271 270 270 269 269 269
304 303 302 301 300 300 299 298 297 296 296 295 294 293 293 292 291 290 289 289 288 287 286 285 285 284 283 283 283 283 283 283 283 283 284 284 284 284 285 285 286 286 286 286 286 285 285 285 284 284 283 283 282 282 281 281 281 281 280 280 279 279 278 278 278 278 277 277 277 277 276 276 276 276 276 275 275 275 275 275 275 275 275 275 275 274 274 274 274 274 273 273 273 272 272 272 271 271 271 270 270 270 269
304 304 303 303 302 301 301 300 299 299 298 298 297 296 296 295 294 294 293 292 291 290 289 288 288 287 286 286 285 285 285 285 285 284 284 284 284 285 285 285 285 286 286 286 286 286 286 285 285 285 284 284 283 283 282 282 282 281 281 280 279 279 279 278 278 277 277 277 277 276 276 276 276 275 275 275 275 275 275 275 275 275 275 275 275 275 274 274 274 274 273 273 273 273 272 272 272 271 271 271 270 270 270
305 304 304 304 304 303 303 302 302 301 301 300 300 299 299 298 297 296 296 295 294 293 292 291 291 290 289 289 288 288 288 287 287 286 286 286 286 285 285 286 286 286 286 286 286 286 286 286 285 285 285 285 284 284 284 283 283 282 282 281 281 280 279 279 279 278 278 277 277 276 276 276 275 275 275 275 275 275 275 275 275 275 275 274 274 274 274 274 274 274 274 273 273 273 273 273 272 272 272 271 271 271 270
305 305 305 305 305 305 304 304 304 303 303 302 301 301 300 300 299 298 298 297 296 295 295 294 293 293 292 292 291 291 290 290 289 289 288 288 287 287 287 287 286 286 286 286 286 285 285 285 285 285 285 285 285 285 284 284 284 283 283 282 282 281 281 280 280 279 279 278 278 277 277 276 276 276 276 275 275 275 275 275 275 275 275 275 274 274 274 274 274 274 273 273 273 273 273 273 272 272 272 272 272 271 271
305 305 305 306 306 305 305 305 305 304 304 303 303 302 301 301 300 300 299 298 297 297 296 295 295 294 294 293 293 292 292 292 291 291 290 290 289 289 289 288 288 287 287 286 286 286 285 285 285 285 285 285 285 285 285 284 284 284 283 283 282 282 282 281 281 280 280 280 279 279 278 278 278 277 277 277 276 276 276 276 276 275 275 275 275 275 274 274 274 274 274 273 273 273 273 272 272 272 272 272 272 272 271
305 305 305 305 305 305 305 305 304 304 304 303 303 302 301 301 300 300 299 298 298 297 296 296 295 295 295 294 294 293 293 293 292 292 291 291 291 290 290 290 289 289 288 287 287 286 286 286 286 285 285 285 285 285 285 285 284 284 284 284 283 283 283 283 282 282 282 281 281 281 281 280 280 280 279 279 279 278 278 278 277 277 277 276 276 276 275 275 275 274 274 274 274 273 273 273 272 272 272 272 272 272 271
304 304 304 304 304 304 304 304 303 303 303 302 302 301 301 300 300 299 299 298 297 297 296 296 295 295 294 294 294 293 293 293 292 292 292 292 291 291 291 290 290 290 289 289 288 288 287 287 286 286 286 285 285 285 285 285 285 285 284 284 284 284 284 284 284 284 284 283 283 283 283 283 283 282 282 282 281 281 281 280 280 279 279 279 278 278 277 277 276 276 275 275 274 274 274 273 273 273 272 272 272 271 271
303 303 303 302 302 302 302 302 302 302 301 301 301 300 300 299 299 298 298 297 297 296 296 295 294 294 294 293 293 293 293 292 292 292 292 291 291 291 291 290 290 290 289 289 289 288 288 288 287 287 287 286 286 286 285 285 285 285 285 285 285 285 285 285 285 285 285 285 285 285 285 285 285 284 284 284 284 284 283 283 283 282 282 281 281 280 280 279 278 278 277 277 276 275 275 274 274 273 273 273 272 272 272
301 301 301 301 301 301 301 301 300 300 300 300 299 299 298 298 297 297 296 296 295 295 294 294 293 293 293 292 292 291 291 291 291 291 291 291 291 290 290 290 289 289 289 289 289 288 288 288 288 288 287 287 287 286 286 286 286 286 286 286 286 286 286 286 286 286 286 286 286 285 285 285 285 285 285 285 285 285 285 285 284 284 284 283 283 282 282 281 281 280 279 279 278 277 277 276 275 275 274 274 273 273 272
299 300 300 300 300 299 299 299 299 299 298 298 298 297 297 296 296 295 295 294 294 293 293 292 292 291 291 291 290 290 290 289 289 289 289 289 289 289 289 288 288 288 288 288 288 288 288 288 288 287 287 287 287 287 287 287 286 286 286 286 286 286 286 286 286 286 286 286 285 285 285 285 285 285 285 285 285 285 285 285 285 285 284 284 284 283 283 283 282 282 281 280 280 279 278 278 277 276 276 275 275 274 273
298 298 298 298 298 298 298 297 297 297 297 296 296 296 295 294 294 293 293 292 292 291 291 290 290 289 289 289 288 288 288 287 287 287 287 287 287 287 287 287 287 286 286 286 286 286 287 287 287 287 287 287 287 287 287 287 287 286 286 286 286 286 285 285 285 285 285 285 285 285 285 285 285 285 285 285 285 285 285 285 285 285 285 284 284 284 283 283 283 282 282 281 281 280 280 279 278 278 277 277 276 276 275
297 297 297 296 296 296 296 295 295 295 294 294 294 293 293 292 291 291 290 290 289 289 288 288 288 287 287 287 287 286 286 286 285 285 285 285 285 285 285 285 285 285 285 285 285 285 286 286 286 287 287 287 287 287 287 287 287 286 286 286 285 285 285 285 285 285 285 285 285 285 285 285 285 285 286 286 286 286 285 285 285 285 285 285 284 284 284 283 283 282 282 282 281 281 280 280 279 279 278 278 277 277 277
295 295 295 294 294 294 293 293 293 292 292 292 291 291 290 290 289 289 288 287 287 286 286 286 285 285 285 285 285 285 284 284 284 284 283 283 283 283 283 283 284 284 284 284 284 284 285 285 286 286 286 286 287 287 287 287 286 286 286 286 285 285 285 285 285 285 285 285 285 285 286 286 286 286 286 286 286 286 286 286 286 286 286 285 285 285 284 284 284 283 283 282 281 281 281 280 280 279 279 278 278 278 277
293 293 293 292 292 292 291 291 291 290 290 289 289 288 288 288 287 287 286 285 285 285 284 284 283 283 283 283 283 283 283 283 283 282 282 282 282 283 283 283 283 283 283 283 284 284 284 285 285 285 286 286 286 286 286 286 286 286 286 286 285 285 285 285 285 285 286 286 286 286 286 287 287 287 287 287 287 287 287 287 287 287 287 286 286 286 285 285 284 284 283 283 282 282 281 281 280 280 280 279 279 278 278
292 291 291 291 290 290 290 289 289 289 288 288 287 287 286 286 286 285 285 284 284 283 283 283 282 282 281 281 281 281 281 281 281 281 281 282 282 282 282 282 283 283 283 283 283 284 284 284 285 285 285 285 285 285 285 285 285 285 285 285 285 285 285 285 285 286 286 286 286 286 287 287 287 287 287 287 287 287 287 287 287 287 287 287 286 286 286 285 285 284 284 283 283 282 282 281 281 281 280 280 279 279 279
290 290 290 290 289 289 289 289 289 288 288 287 287 286 286 286 285 285 284 284 283 283 283 282 282 281 281 281 280 280 280 280 280 280 280 281 281 281 282 282 282 282 283 283 283 283 284 284 284 284 284 284 284 284 284 284 284 284 284 284 284 284 285 285 285 285 285 286 286 286 286 286 287 287 287 287 287 287 287 287 287 286 286 286 286 285 285 285 284 284 283 283 282 282 282 281 281 280 280 280 279 279 279
290 290 289 289 289 289 289 289 288 288 288 288 287 287 286 286 286 285 284 284 283 283 283 282 282 282 281 281 280 280 280 279 279 279 280 280 280 281 281 281 282 282 282 283 283 283 283 284 284 283 283 283 283 283 283 283 283 283 283 283 284 284 284 284 284 284 285 285 285 285 286 286 286 286 286 286 286 286 286 286 286 286 285 285 285 285 284 284 284 283 283 282 282 281 281 280 280 280 279 279 279 279 278
291 290 290 289 289 289 289 289 289 289 289 289 288 288 287 287 287 286 285 285 284 284 283 283 283 282 282 282 281 281 281 280 280 280 280 280 280 280 281 281 282 282 282 282 282 283 283 283 283 283 283 283 283 283 283 283 283 283 283 283 284 284 284 284 284 284 284 285 285 285 285 286 286 286 286 286 286 286 286 286 286 285 285 285 284 284 284 283 283 282 282 281 281 280 280 279 279 279 278 278 278 278 277
292 291 291 290 290 290 289 289 289 289 290 289 289 289 289 289 288 288 287 286 286 285 285 284 284 283 283 283 283 282 282 282 281 281 281 281 281 281 282 282 282 282 283 283 283 283 283 284 284 284 284 284 284 284 284 284 284 284 284 285 285 285 285 285 285 285 286 286 286 286 286 286 286 287 287 287 286 286 286 286 286 285 285 285 284 284 284 283 283 282 282 281 281 280 280 279 278 278 278 277 277 277 276
292 292 292 292 292 291 291 291 291 291 291 291 290 290 290 290 290 289 289 288 287 287 286 286 285 285 284 284 284 284 284 283 283 283 283 282 282 282 282 283 283 283 284 284 284 284 284 284 284 285 285 285 285 285 285 285 286 286 286 286 286 287 287 287 287 287 287 287 287 287 287 287 287 287 287 287 287 287 287 286 286 286 286 285 285 285 284 284 283 283 282 282 281 280 280 279 279 278 278 277 277 276 276
293 293 293 294 294 293 293 293 293 292 292 292 292 292 292 291 291 290 290 289 289 288 287 287 286 286 285 285 285 285 285 284 284 284 284 284 283 283 283 283 283 283 284 284 284 284 284 284 285 285 285 285 285 286 286 286 287 287 287 287 288 288 288 288 288 288 289 289 289 288 288 288 288 288 288 288 287 287 287 287 286 286 286 286 285 285 285 284 284 283 283 282 282 281 280 280 279 279 278 278 277 277 277
293 294 294 295 295 295 295 295 295 295 294 294 293 293 293 292 292 292 291 290 290 289 289 288 287 287 287 286 286 286 286 285 285 285 284 285 284 284 284 283 283 283 282 283 283 284 284 284 284 284 285 285 285 285 286 286 286 287 287 287 288 288 288 288 289 289 289 289 289 289 289 289 289 289 289 288 288 288 288 287 287 287 286 286 286 285 285 284 284 283 283 282 282 281 281 280 280 279 279 278 278 278 277
294 295 295 295 296 296 296 296 296 296 296 295 295 294 294 294 293 293 292 292 291 291 290 289 288 288 287 287 287 287 286 286 286 286 285 285 285 285 284 284 283 283 282 282 282 282 283 283 283 284 284 284 284 285 285 285 286 286 286 287 287 287 288 288 289 289 289 289 290 290 290 290 290 290 290 290 289 289 289 288 288 287 287 287 286 286 285 285 284 284 283 283 282 281 281 280 280 279 279 279 278 278 278
295 295 295 296 296 296 297 297 297 297 297 297 296 296 295 295 295 294 294 293 292 292 291 291 290 289 288 288 287 287 287 287 287 286 286 286 285 285 285 284 284 284 284 283 282 282 282 282 282 282 283 283 283 284 284 284 285 285 285 286 286 287 287 287 288 288 289 289 290 290 290 291 291 291 291 291 291 291 290 290 289 289 288 288 287 286 286 285 284 284 283 283 282 282 281 281 280 280 279 279 279 278 278
296 296 296 296 296 296 296 297 297 297 297 297 297 297 296 296 296 295 295 294 294 293 292 292 291 290 289 289 288 288 288 288 287 287 287 286 286 286 285 285 285 284 284 284 283 283 282 282 282 282 282 283 283 283 283 284 284 284 285 285 285 286 286 286 287 287 288 288 289 289 290 290 290 291 291 291 291 291 291 291 290 290 289 289 288 287 286 285 285 284 284 283 282 282 281 281 280 280 280 279 279 279 278
296 296 296 296 296 296 296 296 296 297 297 297 297 297 297 296 296 296 296 295 295 294 293 293 292 291 290 290 289 289 288 288 288 288 287 287 287 286 286 286 286 285 285 284 284 284 283 283 283 282 283 283 283 283 283 284 284 284 284 284 285 285 285 285 286 286 286 287 287 288 288 289 289 289 290 290 290 290 291 290 290 290 289 289 288 287 287 286 285 285 284 283 283 282 282 281 281 280 280 280 279 279 279
297 296 296 296 296 296 296 296 296 296 296 296 296 296 296 296 296 296 296 295 295 295 294 293 293 292 291 291 290 289 289 288 288 288 288 287 287 287 287 287 286 286 286 286 285 285 285 284 284 284 284 284 284 284 285 285 285 285 285 285 285 285 285 285 286 286 286 286 287 287 287 287 287 288 288 288 288 289 289 289 289 289 288 288 288 287 287 286 285 285 284 284 283 283 282 282 281 281 281 280 280 280 279
297 297 297 296 296 296 296 296 296 296 296 296 296 296 296 296 296 296 295 295 295 295 294 294 293 293 292 292 291 290 290 289 289 289 288 288 288 288 287 287 287 287 287 287 287 287 287 286 286 286 285 285 285 286 286 286 286 286 286 286 286 286 286 286 286 286 286 286 286 287 287 287 287 287 287 286 287 287 287 287 287 287 287 286 286 286 285 285 285 284 284 284 283 283 283 282 282 281 281 281 280 280 280
297 297 297 297 297 297 296 296 296 296 296 296 296 296 296 296 296 295 295 295 295 295 294 294 294 293 293 292 292 291 291 290 290 289 289 289 289 288 288 288 288 288 288 288 288 288 288 288 288 287 287 287 286 286 287 287 287 287 287 287 287 287 287 287 287 287 287 287 287 287 287 286 286 286 286 286 286 286 286 285 285 285 285 285 285 285 284 284 284 284 283 283 283 283 282 282 282 282 281 281 281 281 280
298 298 298 297 297 297 297 297 297 297 297 297 297 297 296 296 296 296 296 295 295 295 295 295 294 294 294 293 293 292 292 291 291 290 290 290 290 290 289 289 289 289 289 289 289 289 289 289 289 289 289 289 288 287 287 287 288 288 288 288 288 288 288 288 288 288 287 287 287 287 287 287 286 286 286 286 286 285 285 285 285 284 284 284 284 284 284 284 284 283 283 283 283 282 282 282 282 282 281 281 281 281 280
298 298 298 298 298 298 298 298 298 298 298 298 298 298 298 297 297 297 296 296 296 295 295 295 295 294 294 294 293 293 293 292 292 292 291 291 291 291 291 291 291 291 291 291 291 291 291 291 291 291 291 290 290 289 289 288 288 289 289 289 289 289 289 289 289 289 288 288 288 288 288 287 287 287 287 286 286 286 286 285 285 285 284 284 284 284 284 284 284 284 284 283 283 283 283 282 282 282 281 281 281 281 280